Location: Lake Almanor
(40.2485°N, 121.1442°W)
Time: 22:55:28
(UTC-08:00)

STARLINK-1083 - Pass Details

Date: 03 February 2020
Orbit: 348 x 351 km, 53.0° (Epoch: 23 February)

Event Time Altitude Azimuth Distance (km) Brightness Sun altitude
Rises 17:59:13 0° 305° (NW) 2,162 7.3 -7.0°
Reaches altitude 10° 18:01:16 10° 299° (WNW) 1,316 6.3 -7.4°
Maximum altitude 18:04:07 48° 224° (SW) 463 3.7 -7.9°
Drops below altitude 10° 18:06:56 10° 147° (SSE) 1,307 5.4 -8.4°
Sets 18:08:58 0° 142° (SE) 2,145 6.4 -8.8°
